Tracking 19562 objects as of 25-Mar-2019
HD Live streaming from Space Station
objects crossing your sky now

COSMOS 1970 (GLONASS)

Track COSMOS 1970 (GLONASS) now!
COSMOS 1970 (GLONASS) is classified as:


NORAD ID: 19501
Int'l Code: 1988-085A
Perigee: 19,115.9 km
Apogee: 19,158.2 km
Inclination: 65.5 °
Period: 675.7 minutes
Semi major axis: 25508 km
RCS: 1.4312 m2 (large)
Launch date: September 16, 1988
Source: Commonwealth of Independent States (former USSR) (CIS)
Launch site: TYURATAM MISSILE AND SPACE COMPLEX (TTMTR)
aabbcc
Your satellite tracking list
Your tracking list is empty




NASA's NSSDC Master Catalog

Two Line Element Set (TLE):
1 19501U 88085A   19083.71602510 -.00000044 +00000-0 +00000-0 0  9997
2 19501 065.5194 043.5302 0008278 049.9664 231.3080 02.13101928237486
Source of the keplerian elements: AFSPC